W0LTA Weather Reports


Display with metric or nautical units.
time (UTC)temp
F
wind
direction
speed
MPH
gust
MPH
rain 1hr
in
rain 24hr
in
rain mn
in
humidity
%
barometer
mb
20170624153732 60 31 3.0 7.0 0.00 0.00 0.00 65 1025.5
20170624153231 60 32 4.0 7.0 0.00 0.00 0.00 66 1025.4
20170624152722 60 32 4.0 6.0 0.00 0.00 0.00 67 1025.5
20170624152227 59 360 1.0 7.0 0.00 0.00 0.00 69 1025.5
20170624151730 59 360 4.0 8.0 0.00 0.00 0.00 70 1025.6
20170624151230 59 360 2.0 8.0 0.00 0.00 0.00 71 1025.6
20170624150735 58 27 0.0 4.0 0.00 0.00 0.00 72 1025.6
20170624150236 58 360 2.0 4.0 0.00 0.00 0.00 72 1025.6
20170624145723 57 28 3.0 5.0 0.00 0.00 0.00 72 1025.6
20170624145225 57 360 4.0 5.0 0.00 0.00 0.00 72 1025.6
20170624144727 57 360 3.0 5.0 0.00 0.00 0.00 73 1025.6
20170624144234 57 360 4.0 5.0 0.00 0.00 0.00 74 1025.6
20170624143718 57 360 4.0 7.0 0.00 0.00 0.00 75 1025.8
20170624143222 56 360 3.0 7.0 0.00 0.00 0.00 75 1025.8
20170624142722 56 26 6.0 7.0 0.00 0.00 0.00 76 1025.7
20170624142222 56 25 3.0 7.0 0.00 0.00 0.00 77 1025.6
20170624141723 56 360 5.0 7.0 0.00 0.00 0.00 77 1025.6
20170624141222 56 33 0.0 5.0 0.00 0.00 0.00 78 1025.6
20170624140726 55 33 3.0 6.0 0.00 0.00 0.00 79 1025.7
20170624140229 55 34 3.0 6.0 0.00 0.00 0.00 79 1025.6
20170624135727 55 34 1.0 4.0 0.00 0.00 0.00 80 1025.6
20170624135225 55 34 1.0 4.0 0.00 0.00 0.00 80 1025.6
20170624134732 55 34 1.0 4.0 0.00 0.00 0.00 80 1025.5
20170624134230 55 36 0.0 4.0 0.00 0.00 0.00 81 1025.4
20170624133729 54 36 0.0 2.0 0.00 0.00 0.00 81 1025.5
20170624133231 54 36 0.0 1.0 0.00 0.00 0.00 81 1025.4
20170624132736 54 36 0.0 1.0 0.00 0.00 0.00 81 1025.4
20170624132237 54 36 0.0 3.0 0.00 0.00 0.00 81 1025.3
20170624131738 54 36 0.0 3.0 0.00 0.00 0.00 81 1025.2
20170624131236 53 36 1.0 4.0 0.00 0.00 0.00 81 1025.2
20170624130739 53 36 2.0 4.0 0.00 0.00 0.00 81 1025.2
20170624130237 53 41 1.0 3.0 0.00 0.00 0.00 81 1025.2
20170624125738 53 40 0.0 1.0 0.00 0.01 0.00 81 1025.1
20170624125219 53 40 0.0 1.0 0.00 0.01 0.00 81 1025.1
20170624124723 53 40 0.0 0.0 0.00 0.01 0.00 81 1025.0
20170624124223 53 41 0.0 0.0 0.00 0.01 0.00 81 1025.0
20170624123723 53 41 0.0 0.0 0.00 0.01 0.00 81 1024.9
20170624123225 52 41 0.0 0.0 0.00 0.01 0.00 82 1024.9
20170624122727 52 41 0.0 0.0 0.00 0.01 0.00 82 1024.9
20170624122230 52 41 0.0 0.0 0.00 0.01 0.00 82 1024.8
20170624121731 52 41 0.0 0.0 0.00 0.01 0.00 82 1024.7
20170624121229 51 41 0.0 0.0 0.00 0.01 0.00 82 1024.8
20170624120733 51 41 0.0 0.0 0.00 0.01 0.00 82 1024.8
20170624120234 51 42 0.0 0.0 0.00 0.01 0.00 81 1024.8
20170624115740 51 42 0.0 0.0 0.00 0.04 0.00 81 1024.8
20170624115239 51 42 0.0 0.0 0.00 0.04 0.00 81 1024.7
20170624114740 50 42 0.0 0.0 0.00 0.04 0.00 81 1024.6
20170624114240 50 42 0.0 0.0 0.00 0.04 0.00 81 1024.6
20170624113721 50 42 0.0 0.0 0.00 0.04 0.00 81 1024.7
20170624113221 50 42 0.0 0.0 0.00 0.04 0.00 80 1024.6
20170624112723 50 42 0.0 0.0 0.00 0.04 0.00 80 1024.6
20170624112226 50 42 0.0 0.0 0.00 0.04 0.00 80 1024.6
20170624111729 50 42 0.0 5.0 0.00 0.04 0.00 80 1024.5
20170624111234 50 42 1.0 5.0 0.00 0.04 0.00 80 1024.5
20170624110739 50 43 0.0 0.0 0.00 0.04 0.00 80 1024.5
20170624110238 50 43 0.0 0.0 0.00 0.04 0.00 79 1024.5
20170624105722 50 44 0.0 3.0 0.00 0.04 0.00 79 1024.5
20170624105221 50 43 1.0 3.0 0.00 0.04 0.00 79 1024.5
20170624104724 50 360 0.0 2.0 0.00 0.04 0.00 79 1024.4
20170624104227 50 360 0.0 3.0 0.00 0.04 0.00 78 1024.4
20170624103727 51 360 0.0 8.0 0.00 0.04 0.00 78 1024.3
20170624103226 51 360 4.0 8.0 0.00 0.04 0.00 77 1024.4
20170624102731 51 203 0.0 0.0 0.00 0.04 0.00 78 1024.1
20170624102231 51 203 0.0 0.0 0.00 0.04 0.00 77 1024.1
20170624101736 51 203 0.0 0.0 0.00 0.04 0.00 77 1024.1
20170624101236 52 203 0.0 0.0 0.00 0.04 0.00 77 1024.1
20170624100737 52 203 0.0 0.0 0.00 0.04 0.00 77 1024.1
20170624100219 52 203 0.0 0.0 0.00 0.04 0.00 77 1024.1
20170624095722 52 203 0.0 2.0 0.00 0.04 0.00 77 1024.1
20170624095227 52 203 0.0 2.0 0.00 0.04 0.00 77 1024.1
20170624094727 52 203 0.0 3.0 0.00 0.04 0.00 77 1024.2
20170624094231 52 203 1.0 3.0 0.00 0.04 0.00 76 1024.2
20170624093730 52 203 2.0 3.0 0.00 0.04 0.00 76 1024.3
20170624093237 53 203 2.0 3.0 0.00 0.04 0.00 76 1024.2
20170624092740 53 203 2.0 3.0 0.00 0.04 0.00 76 1024.3
20170624092222 53 203 2.0 4.0 0.00 0.04 0.00 75 1024.3
20170624091727 53 203 2.0 4.0 0.00 0.04 0.00 75 1024.3
20170624091228 53 203 2.0 3.0 0.00 0.04 0.00 75 1024.2
20170624090728 53 203 1.0 4.0 0.00 0.04 0.00 75 1024.3
20170624090231 53 203 1.0 5.0 0.00 0.04 0.00 75 1024.2
20170624085737 53 203 2.0 5.0 0.00 0.04 0.00 75 1024.4
20170624085240 53 203 0.0 2.0 0.00 0.04 0.00 74 1024.4
20170624084739 53 203 0.0 3.0 0.00 0.04 0.00 74 1024.5
20170624084217 54 203 1.0 3.0 0.00 0.04 0.00 74 1024.5
20170624083724 54 203 1.0 3.0 0.00 0.04 0.00 74 1024.5
20170624083223 54 203 2.0 3.0 0.00 0.04 0.00 73 1024.5
20170624082724 54 203 1.0 3.0 0.00 0.04 0.00 73 1024.6
20170624082222 54 203 1.0 4.0 0.00 0.04 0.00 73 1024.6
20170624081723 54 203 2.0 4.0 0.00 0.04 0.00 73 1024.5
20170624081225 54 203 2.0 5.0 0.00 0.04 0.00 73 1024.7
20170624080726 54 203 1.0 7.0 0.00 0.04 0.00 72 1024.6
20170624080229 55 203 3.0 7.0 0.00 0.04 0.00 72 1024.7
20170624075734 55 204 3.0 6.0 0.00 0.04 0.00 72 1024.7
20170624075232 55 209 2.0 4.0 0.00 0.04 0.00 72 1024.8
20170624074734 55 209 1.0 3.0 0.00 0.04 0.00 71 1024.9
20170624074236 56 209 1.0 3.0 0.00 0.04 0.00 71 1024.9
20170624073734 56 209 1.0 4.0 0.00 0.04 0.00 71 1024.9
20170624073232 56 209 1.0 4.0 0.00 0.04 0.00 70 1025.0
20170624072737 56 209 2.0 4.0 0.00 0.04 0.00 70 1025.0
20170624072220 56 209 2.0 4.0 0.00 0.04 0.00 70 1025.1
20170624071722 56 209 0.0 4.0 0.00 0.04 0.00 69 1025.1
20170624071221 57 209 0.0 3.0 0.00 0.04 0.00 69 1025.2
20170624070720 57 209 1.0 4.0 0.00 0.04 0.00 69 1025.2
20170624070227 57 209 2.0 5.0 0.00 0.04 0.00 69 1025.2
20170624065730 57 209 0.0 4.0 0.00 0.04 0.00 68 1025.2
20170624065232 57 209 0.0 2.0 0.00 0.04 0.00 68 1025.1
20170624064732 57 209 1.0 3.0 0.00 0.04 0.00 68 1025.2
20170624064234 57 209 1.0 3.0 0.00 0.04 0.00 68 1025.1
20170624063737 57 209 1.0 3.0 0.00 0.04 0.00 68 1025.3
20170624063217 58 209 0.0 3.0 0.00 0.04 0.00 68 1025.3
20170624062724 58 209 0.0 2.0 0.00 0.04 0.00 68 1025.3
20170624062224 58 209 0.0 2.0 0.00 0.04 0.00 68 1025.3
20170624061725 58 209 0.0 2.0 0.00 0.04 0.00 68 1025.4
20170624061227 58 209 0.0 4.0 0.00 0.04 0.00 67 1025.4
20170624060727 58 209 2.0 4.0 0.00 0.04 0.00 67 1025.3
20170624060226 57 209 2.0 3.0 0.00 0.04 0.00 67 1025.4
20170624055723 57 209 1.0 3.0 0.00 0.04 0.04 68 1025.4
20170624055226 57 209 2.0 3.0 0.00 0.04 0.04 68 1025.5
20170624054729 57 209 1.0 3.0 0.00 0.04 0.04 68 1025.5
20170624054232 57 209 0.0 3.0 0.00 0.04 0.04 68 1025.5
20170624053735 57 209 2.0 3.0 0.00 0.04 0.04 68 1025.5
20170624053237 57 209 1.0 3.0 0.00 0.04 0.04 68 1025.6
20170624052721 57 209 0.0 1.0 0.00 0.04 0.04 68 1025.5
20170624052222 57 209 0.0 0.0 0.00 0.04 0.04 69 1025.5
20170624051729 57 209 0.0 0.0 0.00 0.04 0.04 68 1025.5
20170624051231 57 209 0.0 0.0 0.00 0.04 0.04 68 1025.5
20170624050730 57 209 0.0 1.0 0.00 0.04 0.04 68 1025.5
20170624050227 56 209 0.0 1.0 0.00 0.04 0.04 68 1025.6
20170624045730 56 209 0.0 0.0 0.00 0.04 0.04 68 1025.6
20170624045232 56 209 0.0 0.0 0.00 0.04 0.04 68 1025.6
20170624044736 56 209 0.0 0.0 0.00 0.04 0.04 67 1025.6
20170624044234 56 209 0.0 1.0 0.00 0.04 0.04 67 1025.6
20170624043734 56 209 0.0 0.0 0.00 0.04 0.04 67 1025.5
20170624043238 56 209 0.0 0.0 0.00 0.04 0.04 67 1025.5
20170624042719 56 209 0.0 0.0 0.00 0.04 0.04 66 1025.5
20170624042221 56 209 0.0 0.0 0.00 0.04 0.04 66 1025.5
20170624041722 56 209 0.0 0.0 0.00 0.04 0.04 66 1025.4
20170624041222 56 209 0.0 0.0 0.00 0.04 0.04 66 1025.4
20170624040727 57 209 0.0 0.0 0.00 0.04 0.04 65 1025.3
20170624040343 57 209 0.0 1.0 0.00 0.04 0.04 65 1025.2
20170624035730 57 209 0.0 1.0 0.00 0.04 0.04 65 1025.2
20170624035229 57 209 0.0 0.0 0.00 0.04 0.04 64 1025.1
20170624034728 57 209 0.0 0.0 0.00 0.04 0.04 64 1025.0
20170624034227 57 209 0.0 0.0 0.00 0.04 0.04 64 1024.9
20170624033728 57 209 0.0 0.0 0.00 0.04 0.04 63 1024.9
20170624033232 58 209 0.0 1.0 0.00 0.04 0.04 63 1024.9
20170624032729 58 209 0.0 1.0 0.00 0.04 0.04 62 1024.8
20170624032232 58 209 0.0 0.0 0.00 0.04 0.04 62 1024.7
20170624031736 58 209 0.0 0.0 0.00 0.04 0.04 61 1024.6
20170624031236 58 209 0.0 0.0 0.00 0.04 0.04 61 1024.6
20170624030740 59 209 0.0 0.0 0.00 0.04 0.04 60 1024.6
20170624030220 59 209 0.0 0.0 0.00 0.04 0.04 60 1024.5
20170624025724 59 209 0.0 0.0 0.00 0.04 0.04 59 1024.4
20170624025223 60 209 0.0 0.0 0.00 0.04 0.04 59 1024.3
20170624024726 60 209 0.0 0.0 0.00 0.04 0.04 58 1024.2
20170624024228 60 209 0.0 0.0 0.00 0.04 0.04 58 1024.1
20170624023731 60 209 0.0 0.0 0.00 0.04 0.04 57 1024.1
20170624023233 61 209 0.0 0.0 0.00 0.04 0.04 57 1024.0
20170624022733 61 209 0.0 0.0 0.00 0.04 0.04 56 1024.0
20170624022236 61 209 0.0 2.0 0.00 0.04 0.04 56 1024.0
20170624021736 61 209 0.0 2.0 0.00 0.04 0.04 56 1023.9
20170624021235 61 209 0.0 2.0 0.00 0.04 0.04 55 1023.9
20170624020734 62 209 0.0 3.0 0.00 0.04 0.04 55 1023.7
20170624020237 62 209 2.0 3.0 0.00 0.04 0.04 55 1023.6
20170624015738 62 209 0.0 2.0 0.00 0.04 0.04 55 1023.6
20170624015221 62 209 0.0 2.0 0.00 0.04 0.04 55 1023.5
20170624014722 62 209 0.0 3.0 0.00 0.04 0.04 55 1023.4
20170624014222 62 209 1.0 3.0 0.00 0.04 0.04 55 1023.4
20170624013724 62 209 0.0 2.0 0.00 0.04 0.04 55 1023.4
20170624013223 63 209 0.0 4.0 0.00 0.04 0.04 54 1023.3
20170624012728 63 201 0.0 4.0 0.00 0.04 0.04 54 1023.3
20170624012231 63 201 1.0 4.0 0.00 0.04 0.04 52 1023.2
20170624011734 63 201 1.0 6.0 0.00 0.04 0.04 53 1023.2
20170624011235 63 201 4.0 6.0 0.00 0.04 0.04 51 1023.2
20170624010737 63 234 3.0 7.0 0.00 0.04 0.04 51 1023.2
20170624010222 64 236 2.0 7.0 0.00 0.04 0.04 52 1023.1
20170624005724 63 215 0.0 6.0 0.00 0.04 0.04 54 1023.1
20170624005228 63 211 1.0 4.0 0.00 0.04 0.04 54 1023.1
20170624004734 63 211 0.0 2.0 0.00 0.04 0.04 52 1023.1
20170624004233 63 211 0.0 2.0 0.00 0.04 0.04 52 1023.0
20170624003735 63 211 0.0 3.0 0.00 0.04 0.04 53 1022.9
20170624003235 63 211 0.0 4.0 0.00 0.04 0.04 52 1022.9
20170624002718 63 211 3.0 5.0 0.00 0.04 0.04 52 1022.9
20170624002220 63 211 3.0 5.0 0.00 0.04 0.04 52 1022.9
20170624001725 63 211 3.0 5.0 0.00 0.04 0.04 52 1022.8
20170624001224 63 222 3.0 4.0 0.00 0.04 0.04 52 1022.8
20170624000729 63 222 0.0 5.0 0.00 0.04 0.04 52 1022.7
20170624000228 63 222 3.0 5.0 0.00 0.04 0.04 52 1022.8
20170623235726 64 222 2.0 4.0 0.00 0.04 0.04 52 1022.8
20170623235231 64 221 1.0 5.0 0.00 0.04 0.04 52 1022.7
20170623234733 64 213 1.0 6.0 0.00 0.04 0.04 50 1022.7
20170623234232 64 216 3.0 6.0 0.00 0.04 0.04 51 1022.6
20170623233732 64 226 2.0 7.0 0.00 0.04 0.04 51 1022.6
20170623233232 63 220 3.0 7.0 0.00 0.04 0.04 52 1022.6
20170623232731 63 209 1.0 5.0 0.00 0.04 0.04 52 1022.6
20170623232234 63 206 2.0 6.0 0.00 0.04 0.04 51 1022.6
20170623231737 63 205 2.0 6.0 0.00 0.04 0.04 50 1022.7
20170623231237 63 207 0.0 3.0 0.00 0.04 0.04 51 1022.7
20170623230721 63 207 0.0 3.0 0.00 0.04 0.04 51 1022.7
20170623230224 64 207 0.0 4.0 0.00 0.04 0.04 50 1022.7
20170623225726 63 206 2.0 4.0 0.00 0.04 0.04 50 1022.8
20170623225229 63 210 0.0 5.0 0.00 0.04 0.04 50 1022.8
20170623224732 63 210 3.0 5.0 0.00 0.04 0.04 51 1022.9
20170623224232 63 210 2.0 5.0 0.00 0.04 0.04 50 1022.8
20170623223733 63 210 2.0 5.0 0.00 0.04 0.04 50 1022.9
20170623223233 63 210 1.0 7.0 0.00 0.04 0.04 52 1022.9
20170623222732 63 204 1.0 7.0 0.00 0.04 0.04 50 1022.8
20170623222235 63 215 2.0 4.0 0.00 0.04 0.04 52 1022.9
20170623221736 63 216 0.0 4.0 0.00 0.04 0.04 51 1022.9
20170623221234 63 216 0.0 4.0 0.00 0.04 0.04 51 1022.9
20170623220734 62 216 1.0 3.0 0.00 0.04 0.04 52 1022.9
20170623220233 62 215 0.0 5.0 0.00 0.04 0.04 52 1023.0
20170623215734 62 210 2.0 5.0 0.00 0.04 0.04 52 1023.1
20170623215236 62 209 3.0 5.0 0.00 0.04 0.04 53 1023.1
20170623214735 62 229 0.0 6.0 0.00 0.04 0.04 52 1023.2
20170623214239 62 229 2.0 8.0 0.00 0.04 0.04 52 1023.2
20170623213721 62 218 2.0 6.0 0.00 0.04 0.04 53 1023.2
20170623213221 62 194 1.0 6.0 0.00 0.04 0.04 54 1023.2
20170623212724 61 194 2.0 6.0 0.00 0.04 0.04 53 1023.2
20170623212219 61 194 2.0 6.0 0.00 0.04 0.04 53 1023.3
20170623211726 61 194 4.0 6.0 0.00 0.04 0.04 52 1023.4
20170623211225 61 194 1.0 4.0 0.00 0.04 0.04 54 1023.3
20170623210728 61 194 1.0 5.0 0.00 0.04 0.04 53 1023.4
20170623210230 61 192 1.0 5.0 0.00 0.04 0.04 53 1023.4
20170623205730 61 191 2.0 4.0 0.00 0.04 0.04 53 1023.5
20170623205230 61 189 0.0 4.0 0.00 0.04 0.04 52 1023.4
20170623204732 61 189 2.0 4.0 0.00 0.04 0.04 53 1023.5
20170623204232 61 189 1.0 6.0 0.00 0.04 0.04 52 1023.5
20170623203730 61 189 2.0 6.0 0.00 0.04 0.04 51 1023.5
20170623203229 61 189 2.0 9.0 0.00 0.04 0.04 50 1023.6
20170623202729 62 189 5.0 9.0 0.00 0.04 0.04 49 1023.6
20170623202229 62 180 1.0 4.0 0.00 0.04 0.04 50 1023.5
20170623201733 62 180 1.0 5.0 0.00 0.04 0.04 50 1023.5
20170623201235 62 180 0.0 8.0 0.00 0.04 0.04 51 1023.4
20170623200738 62 180 4.0 8.0 0.00 0.04 0.04 51 1023.5
20170623200238 62 186 1.0 8.0 0.00 0.04 0.04 50 1023.5
20170623195737 61 205 4.0 7.0 0.00 0.04 0.04 52 1023.5
20170623195218 61 203 2.0 7.0 0.00 0.04 0.04 53 1023.6
20170623194721 60 202 4.0 7.0 0.00 0.04 0.04 55 1023.7
20170623194221 59 202 0.0 5.0 0.00 0.04 0.04 57 1023.7
20170623193727 58 202 2.0 14.0 0.00 0.04 0.04 58 1023.7
20170623193226 58 195 6.0 14.0 0.00 0.04 0.04 57 1023.8
20170623192725 58 193 4.0 7.0 0.00 0.04 0.04 57 1023.9
20170623192224 58 194 3.0 7.0 0.00 0.04 0.04 57 1023.9
20170623191727 58 194 2.0 9.0 0.00 0.04 0.04 57 1023.9
20170623191225 58 194 4.0 7.0 0.00 0.04 0.04 57 1024.1
20170623190727 58 186 2.0 7.0 0.00 0.04 0.04 57 1024.1
20170623190230 58 185 2.0 7.0 0.00 0.04 0.04 57 1024.1
20170623185735 58 185 3.0 7.0 0.00 0.04 0.04 56 1024.2
20170623185238 58 185 3.0 5.0 0.00 0.04 0.04 57 1024.2
20170623184720 58 187 0.0 5.0 0.00 0.04 0.04 56 1024.2
20170623184224 58 187 2.0 5.0 0.00 0.04 0.04 55 1024.3
20170623183725 58 187 2.0 10.0 0.00 0.04 0.04 54 1024.3
20170623183226 59 187 6.0 10.0 0.00 0.04 0.04 52 1024.3
20170623182729 60 185 2.0 7.0 0.00 0.04 0.04 53 1024.3
20170623182232 59 191 2.0 4.0 0.00 0.04 0.04 54 1024.3
20170623181738 59 191 2.0 7.0 0.00 0.04 0.04 53 1024.4
20170623181236 59 191 2.0 7.0 0.00 0.04 0.04 53 1024.4
20170623180737 60 164 2.0 5.0 0.00 0.04 0.04 54 1024.3
20170623180237 59 178 0.0 5.0 0.00 0.04 0.04 56 1024.3
20170623175721 58 173 3.0 5.0 0.00 0.04 0.04 58 1024.4
20170623175221 58 171 0.0 9.0 0.00 0.04 0.04 57 1024.4
20170623174729 57 171 1.0 9.0 0.00 0.04 0.04 58 1024.4
20170623174232 56 189 4.0 6.0 0.00 0.04 0.04 57 1024.5
20170623173735 56 189 1.0 8.0 0.00 0.04 0.04 58 1024.5
20170623173233 56 189 5.0 10.0 0.00 0.04 0.04 56 1024.7
20170623172720 56 189 5.0 10.0 0.00 0.04 0.04 57 1024.6
20170623172222 56 186 2.0 7.0 0.00 0.04 0.04 58 1024.7
20170623171724 55 185 3.0 7.0 0.00 0.04 0.04 58 1024.7
20170623171227 55 178 1.0 4.0 0.00 0.04 0.04 60 1024.8
20170623170727 55 178 1.0 6.0 0.00 0.04 0.04 61 1024.9
20170623170227 55 178 4.0 6.0 0.00 0.04 0.04 60 1024.9
20170623165732 55 159 1.0 4.0 0.00 0.04 0.04 62 1024.9
20170623165234 55 158 1.0 3.0 0.00 0.04 0.04 63 1024.9
20170623164733 55 158 0.0 5.0 0.00 0.04 0.04 64 1024.9
20170623164236 54 158 1.0 5.0 0.00 0.04 0.04 65 1024.9
20170623163736 54 158 1.0 4.0 0.00 0.04 0.04 64 1025.0
20170623163235 54 158 2.0 4.0 0.00 0.04 0.04 64 1025.1
20170623162736 54 158 2.0 6.0 0.00 0.04 0.04 65 1025.1
20170623162236 54 158 1.0 6.0 0.00 0.04 0.04 65 1025.2
20170623161737 54 138 2.0 4.0 0.00 0.04 0.04 65 1025.1
20170623161218 54 138 1.0 3.0 0.00 0.04 0.04 66 1025.2
20170623160721 54 138 2.0 3.0 0.00 0.04 0.04 67 1025.2
20170623160223 53 137 0.0 4.0 0.00 0.04 0.04 66 1025.2
20170623155724 53 138 1.0 4.0 0.00 0.04 0.04 66 1025.2
20170623155223 53 129 0.0 3.0 0.00 0.04 0.04 67 1025.2
20170623154724 53 129 1.0 3.0 0.00 0.04 0.04 67 1025.2
20170623154227 53 129 0.0 1.0 0.00 0.04 0.04 68 1025.3